Other Public Products
Issued by NWS Grand Forks, ND

Home | Current Version | Previous Version | Graphics & Text | Print | Product List | Glossary On
Versions: 1 2 3 4 5 6 7 8 9 10 11 12 13 14 15 16 17 18 19 20 21 22 23 24 25 26 27 28 29 30 31 32 33 34 35 36 37 38 39 40 41 42 43 44 45 46 47 48 49 50
000
FPUS83 KFGF 270410
OPUFGF
PRAIRIE TO PINES WEATHER ROUNDUP
NATIONAL WEATHER SERVICE EASTERN NORTH DAKOTA/GRAND FORKS ND
1000 PM CST SUN FEB 26 2017

 **SATELLITE DATA USED TO AUGMENT SKY COVER AT AUTOMATED STATIONS**
 *****  WEATHER ACROSS EASTERN NORTH DAKOTA  *****

CITY           SKY/WX    TMP DP  RH WIND       PRES   REMARKS
GRAND FORKS    FAIR       7  -1  70 SW6       29.90R WCI  -3
GRAND FORKS AF FAIR       6   2  81 SW6       29.90R WCI  -4
GRAND CITY NWS NOT AVBL
BUXTON         NOT AVBL
DEVILS LAKE    FAIR       5   1  83 SW7       29.85S WCI  -7
FARGO          CLOUDY    20  12  71 S6        29.91R WCI  12
WAHPETON ARPT  MOCLDY    14  10  85 S7        29.92R WCI   4
$$

 *****  WEATHER ACROSS CENTRAL AND WESTERN NORTH DAKOTA  *****

CITY           SKY/WX    TMP DP  RH WIND       PRES   REMARKS
JAMESTOWN      CLOUDY    21  16  81 CALM      29.85R
BISMARCK       FAIR      14  11  87 CALM      29.86R
MINOT          MOCLDY    16  11  80 SW8       29.81R WCI   5
MINOT AFB      CLOUDY    15  11  83 W10       29.81R WCI   2
GARRISON         N/A      9   6  88 SW3       29.82S
WILLISTON      CLOUDY    20  14  77 W6        29.81S WCI  12
DICKINSON      FAIR      12   8  84 CALM      29.77S
HETTINGER      FAIR      17  14  88 CALM      29.80S
$$

 *****  OTHER OBSERVATIONS NORTHEAST NORTH DAKOTA  *****

CITY           SKY/WX    TMP DP  RH WIND       PRES   REMARKS
WALHALLA       NOT AVBL
LANGDON        NOT AVBL
CAVALIER         N/A     14   7  73 SW10      29.87R WCI   1
GRAFTON        FAIR      10   7  85 SW7       29.91R WCI   0
CANDO          NOT AVBL
FORT TOTTEN      N/A      9   5  85 CALM      29.95S
ROLLA          CLOUDY     9   5  85 SW10      29.79S WCI  -6
RUGBY            N/A      5   1  85 SW12      29.82S WCI -11
 ***** THE ABOVE OBSERVATIONS ARE NON NWS ARE NOT QUALITY
        CONTROLLED AND MAY MIS-REPORT RAIN FOR SNOW...
$$

 *****  OTHER OBSERVATIONS SOUTHEAST NORTH DAKOTA *****

CITY           SKY/WX    TMP DP  RH WIND       PRES   REMARKS
COOPERSTOWN    FAIR       0  -4  85 CALM      29.88R
VALLEY CITY    CLOUDY    19  19 100 W6        29.88S WCI  11
OAKES          NOT AVBL
GWINNER        FAIR      23  19  86 E6        29.88R WCI  16
SHEYENNE NWR     N/A     21  15  77 SE5       29.95S WCI  15
BUFFALO        NOT AVBL
WYNDMERE       NOT AVBL
 ***** THE ABOVE OBSERVATIONS ARE NON NWS ARE NOT QUALITY
       CONTROLLED AND MAY MIS-REPORT RAIN FOR SNOW...
$$

  *****  WEATHER ACROSS NORTHERN MINNESOTA  *****

CITY           SKY/WX    TMP DP  RH WIND       PRES   REMARKS
FLAG ISLAND    CLOUDY    12   7  79 SW13      29.83S WCI  -3
WARROAD        FAIR      10   5  79 SW7       29.86S WCI   0
ROSEAU         CLOUDY    12   7  79 SW8       29.86R WCI   1
HALLOCK        CLOUDY    14  10  85 S7        29.87S WCI   4
THF RVR FALLS  FAIR       9   5  84 S5        29.89S WCI   1
HALSTAD          N/A     16  10  78 CALM        N/A
FOSSTON        FAIR       7   3  85 S6        29.89R WCI  -3
BAUDETTE       FAIR       9   2  73 SW5       29.85R WCI   1
WASKISH        FAIR       9   3  78 SW6       29.88R WCI  -1
CROOKSTON      FAIR       9   7  92 S3        29.92R
$$
  *****  WEATHER ACROSS CENTRAL AND WEST MINNESOTA  *****

CITY           SKY/WX    TMP DP  RH WIND       PRES   REMARKS
BEMIDJI        FAIR       8   3  82 CALM      29.87S
PARK RAPIDS    FAIR      10   2  69 CALM      29.87R
WADENA         CLOUDY    10   9  92 CALM      29.88S
DETROIT LAKES  CLOUDY    18  12  79 CALM      29.89S
MOORHEAD       CLOUDY    18  10  73 SE5       29.92R WCI  11
FERGUS FALLS   CLOUDY    18  10  73 CALM      29.96R
ELBOW LAKE     CLOUDY    16  11  82 S5        29.91R WCI   8
MORRIS MN      CLOUDY    23  18  80 SE6       29.90S WCI  16
STAPLES        CLOUDY    12   7  79 CALM      29.89S
WHEATON        CLOUDY    21  16  79 SE7       29.93S WCI  13
$$
  *****  WEATHER ELSEWHERE ACROSS MINNESOTA  *****

CITY           SKY/WX    TMP DP  RH WIND       PRES   REMARKS
DULUTH         FAIR      11   0  61 CALM      29.88R
INTRNTL FALLS  FAIR      11   2  67 SW6       29.86R WCI   1
ELY            FAIR       0  -6  78 CALM      29.87R
CLOQUET        FAIR       3   0  85 CALM      29.89S
BRAINERD       FAIR       9   4  80 CALM      29.90S
HIBBING        FAIR       1  -5  75 CALM      29.88R
ALEXANDRIA     CLOUDY    21  12  68 S6        29.90R WCI  13
SAINT CLOUD    MOCLDY    24  16  71 S3        29.93R
MINNEAPOLIS    CLOUDY    30  14  51 CALM      29.96R
$$

  *****  WEATHER ACROSS SOUTH DAKOTA  *****

CITY           SKY/WX    TMP DP  RH WIND       PRES   REMARKS
SIOUX FALLS    FAIR      27  22  81 S9        29.91R WCI  18
BROOKINGS      FAIR      28  22  78 SW12      29.85  WCI  18
WATERTOWN      FAIR      27  22  81 SE6       29.83R WCI  20
HURON          FAIR      28  21  75 SW9       29.85R WCI  19
SISSETON         N/A     23  19  85 SE9       29.88S WCI  13
ABERDEEN       CLOUDY    26  21  81 E3        29.84R
MITCHELL       FAIR      31  22  69 S10       29.88R WCI  22
PIERRE         CLOUDY    32  15  49 SW9       29.82R WCI  24
MOBRIDGE       FAIR      28  24  85 N8        29.80R WCI  20
RAPID CITY     FAIR      25  18  74 NW6       29.76S WCI  18
$$

  *****  SOME WEATHER IN NEARBY STATES *****

CITY           SKY/WX    TMP DP  RH WIND       PRES   REMARKS
GLASGOW MT     CLOUDY    17  12  80 E5        29.80R WCI  10
GREAT FALLS MT FLURRIES  16  13  88 NE8       29.70S WCI   5
CHEYENNE WY    FAIR      10   3  73 W7        29.76S WCI  -1
SCOTTSBLUFF NE FAIR      19   8  62 SE3       29.82S
OMAHA NE       FAIR      29  21  72 SE6       30.01R WCI  23
DES MOINES IA  FAIR      32  21  64 CALM      30.03R
DAVENPORT IA   FAIR      33  25  72 CALM      30.05R
CHICAGO IL     FAIR      41  27  57 SW14      30.03R
EAU CLAIRE WI  CLOUDY    19  14  81 CALM      29.96R
LA CROSSE WI   FAIR      31  23  72 W8        30.01R WCI  23
$$

  *****  SOME NATIONAL WEATHER *****

CITY           SKY/WX    TMP DP  RH WIND       PRES   REMARKS
LA GUARDIA NY  FAIR      39  15  37 W15       30.25R
RALEIGH NC     FAIR      40  24  53 CALM      30.30S
ATLANTA GA     FAIR      51  23  33 E5        30.23S
NEW ORLEANS LA MOCLDY    63  57  81 E13       30.09F
OKLAHOMA CITY  MOCLDY    49  33  54 N9        29.95R
ALBUQUERQUE NM MOCLDY    41  23  48 S3        29.93R
SALT LAKE CITY MOCLDY    38  19  46 S10       29.67F
LOS ANGELES CA MOCLDY    54  43  66 S8        29.97R
BOISE ID       FAIR      31  25  78 E10       29.67F WCI  22
SEATTLE WA     CLOUDY    39  35  86 N3        29.73S
$$

*** WEATHER ACROSS MANITOBA...SASKATCHEWAN AND ONTARIO ***
                ***ONTARIO***

CITY           SKY/WX    TMP DP  RH WIND       PRES   REMARKS
GERALDTON      CLEAR      7  -2  66 W8        29.79R WCI  -6
THUNDER BAY    CLEAR      3   0  85 VRB2      29.91R
SIOUX LOOKOUT  PTCLDY     1  -4  78 S5        29.78S WCI  -8
TORONTO        MOCLDY    36  21  55 SW16      30.00F
BIG TROUT LK   CLEAR     -4  -9  77 W6        29.72S WCI -16
PICKLE LAKE    NOT AVBL
DRYDEN         CLEAR      7   1  78 SW9       29.78R WCI  -7
KENORA         CLOUDY    12   5  73 SW9       29.79R WCI   0
$$
                *** MANITOBA***

CITY           SKY/WX    TMP DP  RH WIND       PRES   REMARKS
BRANDON        PTCLDY     5   3  92 SW7       29.79S WCI  -7
DAUPHIN        CLOUDY    14   7  73 W8        29.78R WCI   3
ISLAND LAKE    PTCLDY    -8 -11  84 W2        29.77R
PILOT MOUND      N/A      9   3  78 SW7         N/A  WCI  -3
THE PAS        MOCLDY     1  -8  66 N10       29.83R WCI -14
THOMPSON       CRYSTALS -20 -26  76 CALM      29.79S
WINNIPEG       MOCLDY    14   9  79 SW12      29.82R WCI   0
LYNN LAKE      CLEAR    -20 -24  83 NW6       29.77S WCI -36
CHURCHILL      CRYSTALS -24 -29  76 NW12      29.77F WCI -47
GILLAM         CLEAR    -18 -24  76 W8        29.78R WCI -37
$$
                ***SASKATCHEWAN***

CITY           SKY/WX    TMP DP  RH WIND       PRES   REMARKS
ESTEVAN        FLURRIES  14  10  85 SW7       29.78R WCI   4
KINDERSLEY     CLEAR      1  -4  78 N2        29.83S
LLOYDMINSTER   PTCLDY    -4  -9  77 SW7       29.82S WCI -18
PRINCE ALBERT  CLEAR     -2  -9  71 NW3       29.86R
REGINA         CLEAR      7   0  72 NW15G22   29.80R WCI -11
YORKTON        LGT SNOW  12   9  85 N9        29.74S W



USA.gov is the U.S. government's official web portal to all federal, state and local government web resources and services.